Flag for U.S.A. Weather past 2 weeks in Stockton, California, U.S.A.

Now
67 °F

Clear.


Feels Like: 67 °F
Forecast: 61 / 90 °F
Wind: 6 mph from West

Location: Stockton Metropolitan Airport

Current Time: Aug 31, 2014 at 3:24:46 AM

Latest Report: Aug 31, 2014 at 2:55 AM


Visibility: 10 mi

Pressure: 29.83 "Hg

Humidity: 61%

Dew point: 53 °F

Location of StocktonLocation

Historic Weather in Stockton — Graph

°F

Stockton temperature yesterday

Maximum temperature yesterday: 99 °F (at 4:55 PM)
Minimum temperature yesterday: 65 °F (at 3:55 AM)
Average temperature yesterday: 80 °F

Past Weeks' High & Low Weather Summary

 TemperatureHumidityPressure
High99 °F (Aug 30, 4:55 PM)96% (Aug 21, 6:55 AM)30.04 "Hg (Aug 21, 6:55 AM)
Low57 °F (Aug 17, 5:55 AM)12% (Aug 30, 2:55 PM)29.72 "Hg (Aug 18, 5:55 PM)
Average74 °F53%29.87 "Hg
* Reported Aug 16 1:55 AM — Aug 31 1:55 AM, Stockton, Weather by CustomWeather, © 2014

Note: Actual official high and low records may vary slightly from our data, if they occured in-between our weather recording intervals... More about our weather records

Advertising

Stockton weather history for previous 24 hours

 ConditionsComfort  
Time TempWeatherWind HumidityBarometerVisibility
1:55 AM
Aug 31
69 °FClear.8 mph57%29.83 "Hg10 mi
12:55 AM70 °FClear.No wind55%29.83 "Hg10 mi
11:55 PM
Aug 30
71 °FClear.9 mph51%29.82 "Hg10 mi
10:55 PM73 °FClear.12 mph48%29.81 "Hg10 mi
9:55 PM75 °FClear.No wind40%29.81 "Hg10 mi
8:55 PM79 °FClear.10 mph31%29.80 "Hg10 mi
7:55 PM84 °FSunny.16 mph26%29.78 "Hg10 mi
6:55 PM89 °FSunny.13 mph23%29.78 "Hg10 mi
5:55 PM96 °FSunny.15 mph17%29.78 "Hg10 mi
4:55 PM99 °FSunny.12 mph12%29.79 "Hg10 mi
3:55 PM97 °FSunny.12 mph13%29.79 "Hg10 mi
2:55 PM97 °FSunny.10 mph12%29.81 "Hg10 mi
1:55 PM93 °FSunny.7 mph18%29.83 "Hg10 mi
12:55 PM91 °FSunny.8 mph20%29.85 "Hg10 mi
11:55 AM89 °FSunny.9 mph22%29.87 "Hg10 mi
10:55 AM86 °FSunny.7 mph25%29.87 "Hg10 mi
9:55 AM82 °FSunny.No wind31%29.87 "Hg10 mi
8:55 AM77 °FSunny.No wind37%29.87 "Hg10 mi
7:55 AM72 °FSunny.No wind53%29.86 "Hg10 mi
6:55 AM65 °FClear.3 mph63%29.85 "Hg6 mi
6:02 AM66 °FPassing clouds.No wind60%29.84 "Hg5 mi
4:55 AM66 °FClear.5 mph59%29.83 "Hg10 mi
3:55 AM65 °FClear.3 mph56%29.84 "Hg10 mi
Weather by CustomWeather, © 2014

See weather overviewHow to use our weather pages